Home > Weather > Koudougou > Past weeks

Flag for Burkina Faso Past Weather in Koudougou, Burkina Faso — Yesterday and Last 2 Weeks

Now
82 °F

Scattered clouds.


Feels Like: 89 °F
Forecast: 73 / 89 °F
Wind: 5 mph from Southwest

Location: Ouagadougou Airport

Current Time: Jul 25, 2016 at 11:57:58 AM

Latest Report: Jul 25, 2016 at 11:00 AM


Visibility: 5 mi

Pressure: 29.98 "Hg

Humidity: 79%

Dew Point: 75 °F

Location of KoudougouLocation

Past Weather in Koudougou — Graph

°F

Koudougou Temperature Yesterday

Maximum temperature yesterday: 84 °F (at 1:00 PM)
Minimum temperature yesterday: 73 °F (at 6:00 PM)
Average temperature yesterday: 77 °F

High & Low Weather Summary for the Past Weeks

 TemperatureHumidityPressure
High95 °F (Jul 14, 3:00 PM)100% (Jul 12, 5:00 AM)30.23 "Hg (Jul 12, 5:00 AM)
Low70 °F (Jul 20, 6:00 AM)49% (Jul 11, 1:00 PM)29.83 "Hg (Jul 14, 3:00 PM)
Average80 °F81%29.93 "Hg
* Reported Jul 10 10:00 AM — Jul 25 10:00 AM, Koudougou, Weather by CustomWeather, © 2016

Note: Actual official high and low records may vary slightly from our data, if they occured in-between our weather recording intervals... More about our weather records

Advertising

Koudougou Weather History for the Previous 24 Hours

Scroll right to see more
 ConditionsComfort  
Time TempWeatherWind HumidityBarometerVisibility
10:00 AM
Mon, Jul 25
79 °FPartly sunny.2 mph84%30.01 "Hg5 mi
9:00 AM77 °FScattered clouds.3 mph89%29.98 "Hg5 mi
8:00 AM75 °FScattered clouds.5 mph100%29.95 "Hg5 mi
7:00 AM73 °FPassing clouds.3 mph100%29.92 "Hg4 mi
6:00 AM73 °FPassing clouds.5 mph100%29.92 "Hg4 mi
5:00 AM73 °FFog.5 mph100%29.92 "Hg3 mi
4:00 AM73 °FPassing clouds.5 mph100%29.95 "Hg4 mi
3:00 AM73 °FPassing clouds.1 mph100%29.95 "Hg5 mi
2:00 AM73 °FPassing clouds.2 mph100%29.95 "HgN/A
1:00 AM73 °FPassing clouds.No wind100%29.95 "HgN/A
12:00 AM73 °FPassing clouds.No wind100%29.98 "HgN/A
11:00 PM
Sun, Jul 24
73 °FPassing clouds.2 mph100%29.98 "HgN/A
10:00 PM73 °FPassing clouds.No wind100%29.95 "HgN/A
9:00 PM73 °FPassing clouds.No wind100%29.95 "HgN/A
8:00 PM73 °FPassing clouds.1 mph100%29.92 "HgN/A
7:00 PM73 °FLight rain. Passing clouds.3 mph100%29.92 "HgN/A
6:00 PM73 °FLight rain. Scattered clouds.5 mph100%29.92 "Hg5 mi
5:00 PM75 °FScattered clouds.12 mph89%29.92 "HgN/A
4:00 PM77 °FScattered clouds.10 mph89%29.92 "HgN/A
3:00 PM82 °FScattered clouds.3 mph74%29.89 "HgN/A
2:00 PM81 °FLight rain. Scattered clouds.3 mph84%29.92 "HgN/A
1:00 PM84 °FScattered clouds.8 mph70%29.92 "HgN/A
12:00 PM81 °FScattered clouds.6 mph79%29.95 "HgN/A
11:00 AM82 °FScattered clouds.7 mph74%29.98 "HgN/A
Weather by CustomWeather, © 2016

See weather overviewHow to use our weather pages